Погода в Новом Горянове

Россия / Ивановская область     56°53′55″N   40°22′27″E
темп.,
°C
ветер,
м/с
пор.,
м/с
влажн.,
%
обл.,
%
осадки,
мм/ч
давл.,
гПа
погр.,
м
13 мая, чт
чт1300:00+15юв3118914 0.1 1021386
03:00+11юв279659 0.1 1021167
06:00+13юв279488 0.0 1020254
09:00+14вюв259170 0.0 1020361
12:00+18вюв376896 0.1 10191286
15:00+17юв3684100 1.6 1015374
18:00+14з2697100 17.3 1015312
21:00+12ю259798 17.3 1015113
14 мая, пт
пт1400:00+11ю229736 0.0 101730
03:00+10ю2295100 0.0 101822
06:00+11ю139335 0.0 1018111
09:00+16ю3578100 0.0 1018563
12:00+19ю4661100 0.0 10181388
15:00+20ю465616 0.0 10171523
18:00+18ююв2577100 0.5 1016128
21:00+14в239285 2.1 101542
15 мая, сб
сб1500:00+15юв41393100 1.9 1013334
03:00+14юв3898100 3.0 1012190
06:00+15юв3996100 0.0 1012238
09:00+18юв3485100 0.9 1011269
12:00+19зюз1388100 3.3 1011176
15:00+20ююв51182100 6.3 10101242
18:00+19ю51085100 2.5 1008690
21:00+15ю411950 4.1 1009334
16 мая, вс
вс1600:00+14ю412960 0.3 1009495
03:00+12ююз4129739 0.3 1010506
06:00+13юз51093100 0.0 1010536
09:00+14юз4886100 0.0 1011721
12:00+18юз586930 0.0 10121026
15:00+19ююз477818 2.1 10121028
18:00+17юз4983100 2.1 1011425
21:00+14ююз3109597 2.8 1012266
17 мая, пн
пн1700:00+13ююз289760 0.0 1013188
03:00+12юз259823 0.0 1014114
06:00+13зюз24955 0.0 1015130
09:00+18юз247796 0.0 1016585
12:00+22юз2358100 0.0 10161191
15:00+23юз2252100 0.0 10161429
18:00+22ю2368100 0.0 1016120
21:00+16в228190 0.0 101617